Probability
19 21 24 24 24 25 26 26 26 25 25 26 25 22 19 16 13 12 11 8 7 8 7 5 3 3 2 1 0 0 0 0 0 0 0 0 0 0 0 0 0 0 0
19 20 21 21 20 21 22 23 23 23 23 24 24 22 19 15 13 13 11 9 8 8 7 6 5 4 2 0 0 0 0 0 0 0 0 0 0 0 0 0 0 0 0
17 18 19 17 16 16 15 16 18 20 21 21 21 20 17 14 13 12 10 8 8 7 6 6 6 3 1 0 0 0 0 0 0 0 0 0 0 0 0 0 0 0 0
16 16 16 14 12 11 9 10 13 16 17 17 17 16 14 12 11 10 9 7 7 6 5 4 3 2 1 0 0 0 0 0 0 0 0 0 0 0 0 0 0 0 0
12 12 11 9 8 7 6 6 9 11 13 13 13 12 10 8 9 9 8 7 6 5 3 2 1 1 0 0 0 0 0 0 0 0 0 0 0 0 0 0 0 0 0
8 7 6 5 5 4 4 4 5 7 8 9 10 9 8 7 7 8 7 6 5 3 1 1 0 0 0 0 0 0 0 0 0 0 0 0 0 0 0 0 0 0 0
5 4 4 4 4 3 3 3 3 4 5 6 7 7 7 6 6 6 5 4 4 2 0 0 0 0 0 0 0 0 0 0 0 0 0 0 0 0 0 0 0 0 0
2 3 3 3 3 3 3 3 3 3 4 4 4 5 6 5 4 4 3 2 1 0 0 0 0 0 0 0 0 0 0 0 0 0 0 0 0 0 0 0 0 0 0
1 2 2 1 1 2 2 3 3 3 3 3 3 4 4 4 3 2 1 1 0 0 0 0 0 0 0 0 0 0 0 0 0 0 0 0 0 0 0 0 0 0 0
0 1 1 0 0 1 1 1 2 3 3 3 3 3 3 3 2 1 0 0 0 0 0 0 0 0 0 0 0 0 0 0 0 0 0 0 0 0 0 0 0 0 0
0 0 0 0 0 0 0 0 1 2 3 3 3 3 3 2 1 0 0 0 0 0 0 0 0 0 0 0 0 0 0 0 0 0 0 0 0 0 0 0 0 0 0
0 0 0 0 0 0 0 0 0 2 3 3 3 2 1 1 0 0 0 0 0 0 0 0 0 0 0 0 0 0 0 0 0 0 0 0 0 0 0 0 0 0 0
0 0 0 0 0 0 0 1 1 2 3 3 2 1 0 0 0 0 0 0 0 0 0 0 0 0 0 0 0 0 0 0 0 0 0 0 0 0 0 0 0 0 0
0 0 0 0 0 0 0 1 2 2 2 1 1 0 0 0 0 0 0 0 0 0 0 0 0 0 0 0 0 0 0 0 0 0 0 0 0 0 0 0 0 0 0
0 0 0 0 0 0 0 1 1 1 1 0 0 0 0 0 0 0 0 0 0 0 0 0 0 0 0 0 0 0 0 0 0 0 0 0 0 0 0 0 0 0 0
0 0 0 0 0 0 0 0 0 0 0 0 0 0 0 0 0 0 0 0 0 0 0 0 0 0 0 0 0 0 0 0 0 0 0 0 0 0 0 0 0 0 0
0 0 0 0 0 0 0 0 0 0 0 0 0 0 0 0 0 0 0 0 0 0 0 0 0 0 0 0 0 0 0 0 0 0 0 0 0 0 0 0 0 0 0
0 0 0 0 0 0 0 0 0 0 0 0 0 0 0 0 0 0 0 0 0 0 0 0 0 0 0 0 0 0 0 0 0 0 0 0 0 0 0 0 0 0 0
0 0 0 0 0 0 0 0 0 0 0 0 0 0 0 0 0 0 0 0 0 0 0 0 0 0 0 0 0 0 0 0 0 0 0 0 0 0 0 0 0 0 0
0 0 0 0 0 0 0 0 0 0 0 0 0 0 0 0 0 0 0 0 0 0 0 0 0 0 0 0 0 0 0 0 0 0 0 0 0 0 0 0 0 0 0
0 0 0 0 0 0 0 0 0 0 0 0 0 0 0 0 0 0 0 0 0 0 0 0 0 0 0 0 0 0 0 0 0 0 0 0 0 0 0 0 0 0 0
0 0 0 0 0 0 0 0 0 0 0 0 0 0 0 0 0 0 0 0 0 0 0 0 0 0 0 0 0 0 0 0 0 0 0 0 0 0 0 0 0 0 0
0 0 0 0 0 0 0 0 0 0 0 0 0 0 0 0 0 0 0 0 0 0 0 0 0 0 0 0 0 0 0 0 0 0 0 0 0 0 0 0 0 0 0
0 0 0 0 0 0 0 0 0 0 0 0 0 0 0 0 0 0 0 0 0 0 0 0 0 0 0 0 0 0 0 0 0 0 0 0 0 0 0 0 0 0 0
0 0 0 0 0 0 0 0 0 0 0 0 0 0 0 0 0 0 0 0 0 0 0 0 0 0 0 0 0 0 0 0 0 0 0 0 0 0 0 0 0 0 0
0 0 0 0 0 0 0 0 0 0 0 0 0 0 0 0 0 0 0 0 0 0 0 0 0 0 0 0 0 0 0 0 0 0 0 0 0 0 0 0 0 0 0
Wind_Speed
7 7 8 8 8 7 7 5 5 3 2 2 2 2 2 2 1 1 2 1 1 1 1 1 1 1 2 2 4 4 5 3 4 4 3 3 3 3 2 3 3 3 4
7 8 9 9 8 8 7 6 5 3 2 2 2 2 3 2 2 2 3 3 2 1 1 1 1 1 1 2 3 5 3 2 3 3 4 2 2 2 2 2 3 3 3
9 8 9 9 8 8 7 7 6 4 4 3 3 4 3 2 2 3 3 3 3 3 2 1 1 2 2 2 2 3 4 4 2 2 4 4 4 2 2 2 2 3 3
9 8 8 8 7 7 6 7 7 6 5 4 4 5 4 3 2 1 2 3 4 4 4 3 3 3 2 2 2 2 2 4 3 1 1 2 4 4 3 1 2 2 3
9 9 8 7 7 6 6 6 7 7 7 6 4 5 4 3 3 2 3 4 4 5 5 4 4 4 3 2 2 2 3 2 3 2 1 2 2 2 4 3 2 2 2
10 9 8 7 7 7 7 6 7 7 7 7 6 5 5 5 4 3 3 3 3 4 5 5 4 4 4 3 3 4 4 3 3 3 2 2 2 2 3 4 4 2 1
9 9 8 7 7 7 7 6 7 6 6 6 6 6 5 5 4 3 3 3 3 3 4 4 4 4 4 4 4 5 5 4 4 3 2 2 1 2 3 4 4 2 1
8 9 8 6 6 6 6 6 6 5 5 6 6 5 5 4 3 3 3 3 3 3 3 4 5 5 5 5 5 5 5 5 5 5 4 3 2 2 3 4 5 4 1
9 8 7 6 6 6 5 5 5 5 5 5 5 5 5 5 5 4 4 4 3 3 5 5 5 6 6 6 5 5 5 5 5 5 5 4 3 3 2 3 4 5 4
8 7 7 6 5 5 4 5 5 5 5 5 4 4 4 4 4 4 5 5 4 4 5 6 6 6 6 6 6 5 5 7 6 5 6 5 3 3 3 3 2 3 4
8 7 6 5 5 4 4 4 4 5 5 5 5 5 4 4 5 5 5 5 4 4 5 5 6 6 6 6 6 6 6 7 6 6 7 6 5 4 4 3 3 3 3
8 7 6 5 4 4 4 4 3 4 4 4 5 5 5 5 6 6 5 5 5 5 5 6 6 7 7 6 7 6 6 6 6 6 7 6 6 6 5 4 4 3 3
8 7 6 5 4 3 3 3 3 3 3 4 5 5 5 5 5 5 5 5 6 6 6 7 7 6 6 6 6 6 6 6 6 6 7 6 7 6 5 5 4 3 3
8 7 5 4 3 3 3 3 3 3 3 4 4 4 4 4 4 4 5 5 6 7 7 6 6 6 6 6 6 6 6 6 6 6 6 5 6 5 5 5 4 4 5
9 8 6 5 4 4 3 4 4 3 3 4 4 4 3 4 5 5 5 6 6 6 6 6 7 6 6 5 5 5 6 5 5 5 5 5 7 7 5 4 4 4 4
9 8 8 7 5 5 4 4 4 3 3 4 4 4 4 5 5 5 5 5 6 6 6 6 6 7 5 7 8 5 4 4 4 4 4 5 7 8 8 7 5 5 4
9 9 8 7 6 5 5 5 3 3 3 3 3 4 4 4 4 4 5 5 5 5 5 5 5 6 6 8 8 7 4 4 3 3 3 4 5 6 5 6 7 6 5
9 9 8 7 6 5 4 4 4 3 3 3 3 3 3 4 4 4 4 4 3 4 4 4 4 5 6 9 9 8 6 5 4 4 4 4 4 4 4 5 5 5 4
9 8 8 7 6 6 5 4 3 3 3 3 3 3 3 3 4 4 3 3 3 4 3 3 4 5 5 9 9 7 4 4 4 4 4 3 3 5 7 6 5 5 4
8 8 8 7 6 5 5 5 4 3 3 2 2 3 3 3 4 3 3 2 3 3 4 4 4 4 4 8 9 6 3 4 3 3 3 4 4 5 6 4 3 3 3
9 9 8 7 5 5 5 5 4 3 2 3 3 3 3 3 3 3 2 3 3 4 4 4 3 3 3 5 7 6 3 2 2 2 2 2 4 5 5 3 1 1 2
9 8 7 6 5 5 5 5 3 2 3 3 3 3 2 2 3 3 3 3 3 4 3 3 3 3 3 4 5 7 6 4 3 1 1 2 4 5 5 3 3 3 3
8 7 8 7 5 5 5 5 3 3 3 3 3 2 2 2 3 3 3 2 3 3 2 2 2 2 2 4 7 8 8 7 3 1 3 4 6 5 4 5 5 3 2
7 6 7 7 5 4 4 4 3 4 4 3 2 2 3 3 3 2 2 2 2 2 2 2 2 1 2 3 3 4 4 5 4 4 5 6 6 4 4 4 3 2 1
6 6 7 6 5 4 4 4 3 4 4 3 2 3 3 3 3 3 2 2 1 3 4 3 3 3 1 1 1 1 2 2 3 3 3 4 4 4 3 3 3 2 2
6 7 6 6 5 5 4 3 3 4 4 3 2 2 2 2 2 3 2 4 2 3 4 5 4 2 2 2 1 3 3 4 3 3 3 3 2 2 2 2 2 2 2
Wind_Direction
86 72 71 68 63 55 56 63 62 62 105 123 131 132 129 116 95 75 72 65 56 104 153 203 198 178 179 174 155 144 136 138 130 115 105 73 68 88 102 121 126 124 122
87 72 66 59 54 48 42 49 55 48 77 113 146 131 125 113 89 54 49 41 37 38 76 136 143 133 138 141 144 138 141 158 159 141 131 121 65 52 68 88 113 121 118
99 79 70 63 53 45 38 42 42 42 52 65 86 87 85 84 72 52 42 28 26 37 34 50 88 84 108 142 149 144 148 160 168 151 145 151 165 138 59 70 85 107 109
97 88 75 66 58 47 40 38 39 38 39 49 74 89 94 93 77 75 67 37 33 38 40 55 75 77 88 109 124 117 138 147 155 154 89 130 139 145 140 81 63 88 103
98 91 81 72 64 54 48 38 42 41 41 50 70 85 81 83 76 61 67 52 41 35 36 47 66 71 75 84 89 85 95 129 149 144 128 99 90 106 135 148 137 73 66
98 90 80 71 58 47 46 42 45 40 38 48 59 79 85 82 77 60 55 48 43 36 34 49 54 62 64 64 69 76 81 82 97 105 112 128 138 152 139 147 152 136 83
101 93 81 70 58 48 46 47 47 44 38 47 54 60 72 80 87 84 66 59 53 46 33 44 54 60 62 63 65 68 66 66 76 79 84 88 104 140 127 131 136 128 101
102 97 90 79 68 56 49 50 48 45 41 48 51 48 51 64 69 67 68 63 57 48 41 50 54 55 60 64 68 71 62 64 67 66 65 68 55 80 116 136 141 130 98
111 104 94 83 73 62 48 45 48 47 42 49 58 53 50 59 67 63 65 67 58 55 45 50 55 56 57 60 66 71 65 64 63 63 63 62 48 56 74 108 140 143 144
116 107 97 89 77 69 57 48 48 48 45 50 57 66 55 58 67 69 66 68 61 56 55 54 55 57 58 59 67 68 64 68 61 62 63 55 45 52 59 80 85 111 136
127 117 107 99 90 75 63 53 47 48 47 54 59 61 58 59 64 64 60 62 63 59 64 66 62 58 59 59 66 64 66 68 62 59 64 55 51 54 49 59 69 76 102
127 119 114 104 92 79 69 59 55 55 52 60 66 64 59 60 65 63 57 58 59 56 61 68 67 64 63 62 66 69 65 70 68 63 64 55 58 49 42 53 61 70 86
125 120 115 107 100 90 79 69 62 67 68 70 69 62 57 60 62 61 60 60 62 59 57 63 65 62 63 64 64 69 69 68 67 66 67 60 65 57 48 52 56 60 73
135 130 125 119 113 102 91 86 78 79 83 77 73 64 57 60 62 63 63 62 62 62 60 60 62 61 63 64 64 67 68 66 62 61 63 62 66 67 61 59 56 69 72
145 143 141 136 129 116 105 97 92 82 83 81 76 69 59 60 64 66 62 64 66 69 64 63 57 53 55 51 60 63 69 68 63 55 54 57 64 65 64 72 67 75 78
155 149 144 143 141 134 123 109 98 93 87 83 78 71 65 61 63 63 66 66 63 62 61 59 59 54 50 47 58 70 70 68 69 63 49 50 47 46 49 58 70 91 101
156 153 152 149 144 138 130 124 118 105 97 87 77 73 74 66 60 68 68 67 64 67 66 62 66 60 43 49 60 69 79 74 72 69 60 55 43 38 38 41 45 48 74
153 149 146 140 138 135 135 133 123 110 101 93 86 84 82 74 70 68 66 65 66 72 72 70 70 65 44 45 57 65 69 68 68 73 82 79 43 31 48 54 46 34 28
144 142 139 136 136 138 139 124 109 106 108 102 94 96 95 87 83 77 67 68 73 70 71 78 72 63 34 37 52 65 66 64 55 55 66 78 60 46 62 66 52 32 8
130 130 128 126 129 136 130 122 121 115 115 117 112 105 100 94 93 87 74 67 81 84 82 75 67 69 47 37 48 61 78 73 57 43 39 50 58 50 61 71 64 35 344
127 127 128 130 138 137 126 123 125 132 135 117 102 89 85 102 99 81 72 78 79 76 73 72 58 56 50 38 44 56 80 97 79 50 15 355 23 37 42 63 85 305 312
127 129 129 131 136 133 124 126 141 155 126 107 95 87 78 99 99 85 74 81 92 83 73 74 56 28 21 32 39 52 66 83 89 57 335 323 351 8 11 12 337 350 19
130 128 131 131 132 134 134 139 157 138 119 102 100 92 74 76 91 100 93 79 89 100 96 94 80 27 11 14 32 44 51 55 58 350 334 345 355 1 359 351 354 12 43
130 128 127 127 131 137 140 149 147 126 122 119 115 104 96 76 64 71 91 103 110 117 115 110 104 60 22 9 7 17 24 28 23 360 350 0 5 9 352 349 1 17 37
128 129 132 134 141 143 143 150 141 123 118 113 110 102 97 105 86 70 64 103 134 179 157 159 156 139 112 305 3 54 22 3 351 357 12 15 7 2 358 356 351 359 15
131 130 131 135 142 145 148 152 144 134 126 113 116 128 123 125 118 108 56 31 57 87 129 150 153 156 172 173 53 29 9 1 20 51 26 1 355 350 345 352 350 353 352